Theta_e
313 314 314 314 314 314 314 315 316 316 317 319 320 320 321 320 317 318 323 324 322 321 319 318 319 319 319 319 320 319 319 319 318 318 317 316 316 315 315 315 314 314 314 314 314 314 315 315 316 317 318 319 321 321 322 324 324 324 324 325 325 325 325 325 325 325 325 325 324 325 324 324 323 323 322 321 321 320 320 321 320 320 320 320 318 317 316
314 314 314 313 314 314 314 315 315 316 317 319 320 321 322 322 321 322 323 322 321 319 317 317 317 318 318 318 318 318 318 318 317 317 316 315 314 314 313 313 312 312 312 312 312 312 312 313 313 314 314 315 316 317 319 320 321 322 323 323 324 324 325 325 325 325 325 325 325 325 325 324 324 323 323 322 322 321 321 321 321 320 321 321 320 319 318
315 315 313 313 314 313 314 314 314 316 317 317 318 320 321 322 323 322 320 319 318 316 315 316 316 315 316 316 316 317 316 316 315 315 314 313 312 312 311 311 310 310 310 310 309 310 310 310 311 312 312 312 312 313 314 315 317 319 321 322 322 323 324 324 324 324 325 325 325 325 325 324 324 324 323 323 322 321 321 321 321 321 321 321 321 320 319
315 315 313 314 314 313 314 314 314 316 317 315 316 318 320 321 320 319 317 317 316 314 314 314 314 315 315 315 315 314 313 313 313 312 311 310 310 309 309 309 309 308 308 308 308 308 307 307 308 309 309 310 311 311 311 312 313 315 316 317 318 319 320 321 322 323 323 323 324 324 324 324 324 324 323 323 323 322 322 320 319 320 321 320 321 320 320
315 315 314 314 314 314 314 314 315 315 315 315 315 316 318 319 318 317 317 316 314 313 313 313 313 313 314 313 312 311 311 311 310 309 309 308 308 308 308 308 308 308 307 307 307 306 306 306 306 306 307 308 308 309 310 311 312 312 313 313 314 314 315 316 317 319 320 321 322 322 323 323 323 324 324 324 323 323 323 322 321 321 320 319 319 319 320
314 315 315 315 315 315 315 315 315 316 315 315 316 316 315 316 316 316 316 315 313 313 313 313 313 312 312 311 310 309 309 309 308 308 308 308 308 307 307 307 307 307 306 306 306 305 305 305 305 305 306 306 307 307 308 309 310 311 312 312 312 312 312 313 313 315 317 319 320 321 321 322 322 323 323 323 324 323 323 323 323 323 322 321 320 319 320
315 315 316 316 316 315 314 313 313 314 314 314 314 313 312 313 314 315 314 313 313 314 314 314 312 311 310 309 309 309 308 308 308 307 307 307 307 306 306 306 305 305 305 304 304 304 304 304 304 304 304 305 306 306 307 307 308 309 310 311 311 311 311 311 312 312 313 315 316 318 319 320 321 321 321 321 321 322 322 323 323 323 323 322 322 320 319
315 316 317 317 315 315 314 312 311 313 314 313 313 312 312 312 313 313 313 312 312 312 311 310 309 308 308 307 307 307 307 307 307 306 306 305 305 305 304 303 303 302 302 302 302 303 303 303 303 303 303 304 305 305 306 306 306 307 308 309 309 309 310 310 310 311 311 312 313 315 316 317 318 319 319 319 319 320 321 322 322 322 322 322 321 320 320
314 316 317 315 315 315 314 313 312 313 313 313 313 313 313 312 313 313 311 310 309 309 308 307 307 307 306 305 305 305 305 305 305 305 305 304 304 303 302 301 301 300 300 301 301 301 301 301 301 301 302 303 304 304 304 305 305 306 307 308 308 308 308 309 309 309 310 311 311 312 313 314 315 317 318 319 319 320 321 321 322 322 322 321 320 320 320
314 314 315 314 314 314 314 312 311 311 311 312 313 313 312 312 313 313 311 308 308 308 307 307 307 307 307 305 304 304 304 304 304 303 303 303 303 302 301 301 300 300 299 299 300 300 300 299 298 299 300 301 302 302 303 303 303 304 306 307 307 306 306 307 307 307 308 309 310 311 311 312 313 315 316 316 318 319 320 321 321 321 321 321 319 319 320
312 312 312 312 313 312 312 310 309 309 309 310 312 312 311 312 312 312 310 309 309 308 307 307 308 309 309 307 304 304 304 303 303 302 302 302 301 301 300 299 299 300 300 299 299 300 299 298 297 297 298 298 299 300 302 302 302 303 304 305 304 304 304 305 305 306 306 307 308 309 309 310 311 313 314 315 315 317 319 320 320 320 321 320 319 319 320
311 311 310 311 311 310 310 309 308 307 307 309 311 311 310 311 311 311 310 309 309 308 308 309 309 309 309 307 305 304 303 302 302 302 301 301 300 300 299 298 298 299 300 300 300 300 299 298 297 297 297 297 297 299 299 300 301 302 303 302 301 301 301 302 303 304 305 306 307 307 307 308 308 309 311 313 314 315 317 319 319 319 320 320 320 320 320
310 310 310 310 309 308 308 308 307 307 308 310 311 310 309 310 311 310 309 309 309 309 310 310 308 307 306 305 304 303 303 302 302 301 301 300 300 300 299 298 297 298 299 300 300 299 299 298 296 297 296 296 297 298 299 299 301 301 300 299 298 298 298 298 299 301 303 304 304 305 305 306 306 307 308 310 312 314 315 317 318 318 319 319 319 320 320
310 309 310 311 309 306 306 307 306 307 309 310 309 309 309 309 310 309 308 309 309 308 308 307 306 304 304 304 303 303 302 302 301 301 300 300 300 300 299 299 298 297 298 299 299 298 298 298 296 296 296 296 297 297 297 299 299 298 297 297 296 296 297 297 297 298 298 299 300 301 302 303 304 305 307 308 309 312 313 314 315 317 318 319 319 319 319
309 309 310 311 309 305 305 306 306 306 308 308 307 308 308 308 308 308 307 307 307 307 305 304 304 304 303 303 303 302 302 301 301 300 300 300 300 299 299 299 298 296 298 299 299 298 299 298 297 297 296 297 297 297 297 298 298 297 296 297 297 296 297 296 296 296 296 297 297 297 299 300 301 302 305 307 308 310 312 312 313 315 316 318 318 318 318
308 309 308 308 307 305 305 306 306 305 305 305 306 306 306 306 306 306 305 305 305 305 304 304 304 304 303 303 302 302 302 301 300 300 299 299 300 299 299 299 298 296 297 299 298 299 299 299 298 298 298 298 298 298 299 299 298 298 298 298 297 297 297 297 297 296 296 297 298 298 299 300 301 301 302 304 306 308 310 311 312 313 315 317 318 316 315
306 307 306 305 305 305 305 305 305 304 304 304 304 305 305 304 305 304 304 304 304 304 304 303 303 303 302 302 302 301 300 300 300 299 299 299 300 299 299 299 298 297 298 299 299 299 299 299 299 299 299 299 299 299 299 299 298 299 299 299 298 298 298 298 298 297 297 297 298 299 300 300 301 301 302 303 305 307 308 310 311 312 313 315 316 316 315
306 306 305 305 305 305 304 304 304 304 304 304 304 304 304 304 304 303 303 302 302 302 302 302 302 301 301 301 301 300 299 300 299 299 299 299 299 299 299 299 298 297 298 299 299 299 299 299 299 299 299 299 299 299 299 299 299 299 299 299 299 299 299 299 299 299 299 299 299 299 300 300 301 301 302 302 303 305 307 308 310 311 312 313 314 314 314
305 305 304 304 304 304 304 303 303 303 303 303 303 303 303 302 302 302 302 301 301 301 301 301 301 300 300 300 300 299 299 299 299 299 299 299 299 299 299 299 298 298 298 299 299 299 299 299 299 299 299 299 299 299 299 299 299 299 299 299 299 298 298 299 298 299 299 299 299 299 299 300 300 301 301 302 302 303 304 306 308 309 310 311 312 313 313
305 304 304 304 304 304 303 303 302 302 302 302 302 301 301 301 301 301 300 300 301 301 301 300 300 300 300 299 299 299 298 298 298 298 299 298 298 298 298 298 298 298 298 299 299 299 299 299 299 299 299 299 299 299 299 299 299 299 299 298 298 298 298 298 298 298 298 298 298 298 299 299 300 300 301 301 302 302 303 304 307 308 309 310 310 310 312
304 304 304 304 303 303 303 303 302 302 302 301 301 301 301 301 301 301 300 300 300 300 300 300 300 300 300 299 299 298 298 298 298 298 298 298 298 298 298 298 298 298 298 298 298 298 299 299 299 299 299 299 299 299 299 299 298 298 298 298 298 298 298 298 298 298 298 298 298 298 298 299 299 300 300 301 301 302 302 303 304 306 309 310 309 309 310
302 303 303 303 303 302 303 303 302 302 301 301 301 301 301 301 300 300 300 300 300 300 299 299 299 299 299 299 298 297 297 298 297 297 297 298 297 298 298 297 297 298 298 298 298 298 298 298 298 298 298 299 299 298 298 298 298 298 298 298 297 297 297 297 297 298 297 298 298 298 298 298 299 299 300 300 300 301 301 302 303 305 308 309 309 309 310
302 303 303 303 302 302 302 302 301 301 301 300 300 300 300 300 300 299 299 299 299 299 299 298 298 298 298 297 297 297 297 297 297 297 297 297 297 297 297 297 297 297 297 298 298 298 298 298 298 298 298 298 298 298 298 298 298 298 297 297 297 297 297 297 297 297 297 297 297 297 297 297 297 298 299 300 300 300 300 301 302 304 306 306 307 308 309
302 302 302 302 302 302 302 301 301 300 300 300 300 300 300 299 299 299 298 298 298 298 298 298 298 297 297 296 296 296 297 297 297 296 296 296 296 296 296 296 297 297 297 297 298 298 298 298 298 298 298 298 298 298 298 298 298 297 297 297 297 297 297 297 297 297 297 297 297 297 297 297 297 297 298 299 300 301 300 300 301 301 302 303 304 304 305
301 301 301 301 300 300 300 300 300 299 299 299 299 299 299 298 298 298 298 298 298 297 297 297 297 297 296 296 296 296 296 296 296 295 295 295 296 296 296 296 297 297 297 297 297 298 298 298 298 298 298 298 298 298 298 298 297 297 297 297 297 297 297 297 297 297 297 297 297 297 296 296 297 297 297 297 299 300 301 301 301 301 300 300 300 300 299
300 300 300 300 300 299 299 299 299 299 299 298 298 298 298 298 298 298 297 297 297 297 297 297 297 296 296 296 296 296 296 295 295 295 295 296 296 295 296 296 296 297 297 297 297 298 297 298 298 298 298 298 298 298 298 297 297 296 297 297 297 297 298 298 297 297 297 297 297 296 296 296 296 296 296 297 298 299 300 301 301 301 301 301 299 298 298
299 299 299 299 299 299 298 298 299 299 299 298 298 298 298 298 297 297 297 297 297 297 296 296 296 296 296 296 296 295 295 295 295 295 295 295 295 295 295 296 296 296 297 297 297 297 297 297 298 298 298 298 298 298 297 297 296 296 296 297 297 298 297 297 297 296 296 296 296 296 295 295 295 295 296 296 297 298 299 300 301 302 302 301 299 298 299
298 299 299 299 299 299 298 298 298 298 298 298 298 298 297 297 297 297 297 297 297 296 296 296 296 295 295 295 295 295 295 295 295 295 295 295 295 295 295 295 296 296 296 297 297 297 298 298 298 298 298 298 298 298 297 297 296 296 296 297 297 297 297 296 296 296 295 295 295 295 295 295 294 295 295 296 296 297 298 300 301 302 302 302 301 299 299
298 298 299 298 298 298 298 298 298 298 298 298 298 297 297 297 297 297 297 297 296 296 296 296 296 295 295 295 295 295 295 295 295 295 294 294 294 294 295 295 296 296 296 297 298 298 298 298 298 298 298 298 298 297 297 296 296 296 296 296 297 297 297 297 296 296 295 295 295 295 295 294 294 294 295 295 295 296 298 299 300 301 301 302 302 300 299
299 299 298 298 298 298 297 297 297 297 297 297 297 297 297 297 297 297 297 296 296 296 296 296 296 296 295 295 295 295 295 294 294 293 293 294 294 294 294 295 295 296 297 298 298 297 297 297 297 298 298 298 298 297 297 297 297 297 296 296 296 297 296 296 296 295 295 295 295 295 294 294 294 293 294 295 295 296 297 299 300 301 301 301 301 300 300
299 298 298 298 298 297 297 297 297 297 297 297 297 297 297 297 297 297 296 296 296 296 296 296 295 295 295 295 295 294 293 292 292 292 293 293 293 294 295 296 296 296 297 297 297 297 297 297 298 297 297 298 298 297 297 297 297 297 296 296 296 296 296 296 295 295 295 296 295 295 294 294 293 293 294 294 295 295 297 299 300 300 300 300 300 301 300
298 298 298 298 298 297 297 297 297 297 297 297 297 297 297 297 297 296 296 296 296 296 295 295 295 295 295 294 293 291 290 291 292 293 293 293 293 294 295 296 297 297 296 296 297 297 297 297 297 297 297 297 297 297 298 297 297 297 296 296 296 296 296 295 295 295 295 295 295 294 294 294 293 293 294 295 295 296 297 299 299 300 300 300 300 300 300
298 298 298 298 298 297 297 297 297 297 297 297 297 297 297 297 296 296 296 295 295 295 295 294 294 294 293 291 289 289 291 293 293 293 293 293 294 295 296 296 297 297 296 296 297 297 298 297 297 297 297 297 297 298 298 297 297 297 296 296 296 296 296 295 295 295 295 295 294 294 294 293 294 294 294 295 295 296 298 299 299 300 299 299 300 300 299
298 298 298 297 297 297 297 297 297 297 297 297 297 297 296 296 296 296 296 295 295 294 294 294 293 291 289 288 289 291 293 294 294 293 294 294 295 295 296 296 297 297 296 297 298 298 297 297 297 297 297 297 297 298 298 297 297 297 297 297 297 296 295 295 295 295 294 294 294 294 294 294 294 294 295 295 296 297 298 299 299 299 299 299 299 299 298
298 297 297 297 297 297 297 297 297 297 297 297 297 297 296 296 296 295 295 295 295 294 294 294 292 289 287 288 290 293 294 294 294 294 295 295 295 296 296 296 297 297 297 297 298 297 297 297 297 297 297 297 298 298 297 297 297 297 297 297 296 296 295 295 295 294 294 294 294 295 295 295 295 295 295 296 296 297 298 298 298 299 299 299 299 298 298
297 297 297 297 297 297 297 297 297 297 297 297 297 296 296 296 296 295 295 295 294 294 294 293 291 288 287 289 292 293 294 295 295 295 295 295 295 296 296 297 297 297 297 297 298 297 297 297 297 297 297 297 298 298 297 297 297 296 297 296 296 296 295 295 295 294 294 294 295 295 295 295 295 295 295 296 297 297 297 298 298 298 298 298 298 298 298
297 297 297 297 297 297 296 297 297 297 297 297 296 295 295 295 295 295 295 294 294 294 294 293 290 287 287 290 293 294 295 295 295 295 296 295 294 294 294 295 296 296 297 297 297 297 297 297 297 296 297 297 298 298 297 297 297 297 297 296 296 296 296 295 295 294 294 295 295 295 295 295 295 295 295 297 297 297 297 298 298 297 297 298 297 297 297
297 297 297 297 297 296 296 297 297 297 296 296 295 295 295 295 295 295 295 294 294 294 293 292 291 288 288 291 293 295 295 295 295 295 294 293 292 291 292 293 294 294 295 295 295 295 296 297 296 296 297 297 297 297 297 297 297 297 297 296 296 296 296 296 294 294 295 295 295 295 295 295 295 296 296 297 297 297 297 297 297 296 296 296 296 295 296
297 297 297 297 297 296 296 297 297 296 296 296 295 295 295 295 295 295 294 294 294 293 292 292 291 289 288 290 293 295 295 295 294 293 293 291 290 290 291 292 293 293 291 291 292 293 294 296 296 296 297 297 297 297 297 297 297 297 297 296 296 296 297 295 294 294 295 295 295 296 296 296 296 296 296 296 297 297 297 296 296 295 295 295 295 294 295
297 297 297 297 297 296 296 297 296 296 296 296 296 296 295 295 295 295 294 294 294 293 292 292 291 290 288 289 291 293 294 294 292 291 291 290 290 291 292 293 294 292 290 290 291 291 292 294 295 296 296 297 297 296 296 296 297 297 297 296 296 296 296 295 294 294 295 295 295 295 295 295 295 296 296 296 296 296 296 296 296 295 295 294 294 294 294
298 297 297 297 297 297 297 297 297 297 297 296 296 296 295 295 295 295 294 294 294 293 292 291 292 292 292 292 292 291 292 292 291 290 290 290 291 292 293 294 293 292 290 290 290 290 292 293 294 295 296 296 296 296 296 296 296 297 297 296 296 295 295 295 294 294 294 294 295 295 295 294 295 295 295 296 296 296 296 296 295 295 294 294 294 294 294
299 298 298 298 298 298 298 297 297 297 297 297 297 296 296 295 295 295 295 294 294 292 292 291 291 291 291 292 292 291 291 291 291 291 291 291 291 291 292 293 292 291 289 289 290 291 293 293 293 294 296 296 296 296 296 296 296 296 296 296 296 295 295 294 294 294 294 294 294 294 293 293 293 294 294 294 294 295 295 295 295 294 294 293 293 293 294
298 298 298 298 298 298 298 298 297 297 297 297 297 297 296 295 295 295 295 295 294 292 292 291 291 290 289 289 290 291 291 291 291 291 292 292 291 289 289 291 291 290 288 288 289 292 293 292 291 292 295 296 296 296 296 296 296 296 296 296 296 296 295 295 294 295 295 295 294 294 293 292 292 292 292 293 293 293 293 293 293 293 293 293 293 293 293
298 298 298 298 298 298 297 298 297 297 297 297 297 297 296 296 295 295 295 295 294 293 292 291 291 291 291 290 291 291 291 291 291 291 292 292 292 291 289 288 289 289 288 287 289 291 292 290 289 291 293 295 295 295 295 295 296 296 296 296 296 296 295 295 295 295 295 295 295 295 294 293 292 292 292 292 292 292 292 292 292 292 292 292 293 293 292
298 298 298 298 298 297 297 297 297 296 296 296 297 297 297 296 295 295 295 295 294 294 292 291 291 291 291 291 291 291 291 291 291 291 291 292 294 294 291 288 287 288 288 287 289 291 291 289 288 289 291 292 293 294 294 295 295 295 295 295 295 295 295 295 294 295 295 295 295 295 295 294 294 293 293 293 292 292 293 293 293 293 293 293 293 292 293
298 298 298 298 298 298 297 297 297 296 296 296 297 297 297 296 295 295 296 295 295 294 293 292 291 291 291 291 291 290 290 289 289 289 290 291 291 291 289 287 287 288 288 287 288 290 289 288 288 289 289 289 291 292 293 294 294 294 294 295 294 294 294 294 294 294 294 294 295 295 295 295 294 294 294 294 294 294 294 294 294 294 294 293 293 293 293
298 298 298 298 298 298 297 297 297 296 295 296 297 297 297 296 296 295 295 295 295 294 294 293 292 291 290 291 290 290 291 291 290 289 289 289 289 288 287 287 287 287 287 287 288 288 288 287 288 288 288 288 290 291 292 292 292 293 293 294 294 294 294 294 294 294 294 294 294 294 294 294 295 294 294 294 294 294 294 294 294 294 294 293 293 293 293
298 298 298 298 298 298 297 297 297 296 296 296 296 297 297 297 296 296 295 295 295 295 294 294 293 292 291 290 290 290 291 292 292 291 290 289 289 288 287 287 287 287 287 287 287 287 287 287 288 288 287 288 290 291 291 290 290 291 291 291 292 293 293 293 293 293 293 293 293 293 293 293 293 294 294 294 294 294 294 294 294 294 293 293 293 293 293
298 298 298 298 298 298 297 297 297 297 297 296 296 296 297 297 297 297 296 296 295 295 295 294 294 293 292 290 289 289 289 290 291 291 290 289 289 288 288 287 287 287 287 287 287 287 287 287 287 287 288 289 291 291 289 288 288 289 289 289 289 290 290 291 291 291 291 291 292 292 291 292 292 292 293 293 293 294 294 293 293 293 293 293 293 293 293
298 298 298 298 298 298 298 297 297 297 297 297 296 297 297 297 297 297 297 296 296 296 295 295 294 294 292 291 290 290 289 288 289 289 289 288 287 287 287 287 287 287 287 287 287 287 287 287 287 287 288 289 289 289 288 288 288 288 288 288 288 288 289 289 289 289 290 290 290 290 290 291 291 292 292 293 293 293 293 293 293 293 293 293 293 292 292
298 298 298 298 297 298 298 298 297 297 296 296 296 296 296 296 296 296 297 297 296 296 295 295 294 294 293 292 291 291 290 289 288 287 287 287 287 287 287 287 287 287 287 287 287 287 287 287 287 287 287 287 287 287 287 287 287 287 287 288 288 288 288 288 289 289 289 289 289 290 290 290 290 291 291 292 292 292 292 292 292 292 292 291 291 291 291
298 298 298 297 297 297 297 297 297 297 296 296 296 295 296 296 296 296 296 297 297 296 296 295 295 294 294 293 292 291 290 289 288 287 287 287 287 287 287 287 287 287 287 287 287 287 287 287 286 287 287 287 287 287 286 286 286 286 287 287 287 287 288 288 288 288 289 289 289 289 289 289 290 290 290 290 291 291 291 291 291 291 291 291 292 292 292
Wind_Speed
4 8 9 8 5 2 2 3 1 1 1 2 2 0 2 2 3 2 9 14 14 12 12 11 10 10 11 11 13 13 13 14 16 16 17 18 19 19 19 19 19 19 19 19 19 19 19 18 17 15 13 12 12 10 9 8 7 6 7 8 7 6 6 5 6 7 8 9 10 10 10 10 10 11 12 13 13 14 14 14 15 14 14 14 14 14 15
6 7 8 9 8 4 4 6 5 3 4 4 5 7 8 7 7 10 14 15 14 11 10 9 10 11 12 12 13 14 14 15 16 16 16 17 18 19 19 19 19 19 19 19 19 19 19 18 17 16 15 14 13 12 10 9 7 6 5 6 5 4 3 3 3 4 6 7 8 8 9 10 10 11 12 13 14 15 14 15 16 16 15 15 15 16 16
7 7 7 8 8 5 2 4 5 5 7 7 8 8 8 9 11 13 15 15 12 9 10 11 11 11 13 13 13 14 14 14 15 15 15 17 18 19 18 18 18 18 18 18 18 19 18 18 17 16 15 14 14 13 12 10 9 7 6 6 5 5 4 2 1 2 3 4 6 7 8 10 10 11 13 14 15 15 15 15 16 16 16 16 17 18 18
7 9 10 11 10 7 6 5 3 1 5 7 7 8 8 7 10 12 12 10 8 9 11 12 12 12 13 13 14 14 14 14 15 14 15 17 18 18 18 18 17 17 17 17 17 17 17 17 16 15 15 14 14 14 12 11 10 8 7 7 7 6 5 3 2 0 1 2 3 5 7 9 11 12 14 15 15 15 16 17 17 18 19 19 19 20 20
6 10 12 10 9 8 8 6 6 5 4 5 6 8 10 8 6 7 6 7 9 11 12 12 12 12 13 13 13 13 14 14 14 14 15 16 17 17 16 16 16 16 16 16 16 16 16 15 15 15 14 14 14 13 12 11 10 9 8 8 8 8 6 5 4 2 1 1 2 3 5 7 9 11 13 14 15 16 17 17 18 19 21 22 22 23 23
7 10 12 9 8 8 3 1 2 4 6 6 5 6 8 8 6 6 9 11 12 13 13 13 13 14 14 14 13 13 13 13 13 14 15 15 16 16 15 16 15 15 14 14 14 14 14 14 14 13 13 13 13 12 11 11 10 9 8 8 8 8 8 7 6 5 4 3 3 3 4 5 6 9 11 12 14 15 16 17 18 19 20 21 23 25 26
6 7 10 9 7 4 2 3 4 4 4 8 10 8 5 6 8 11 14 13 12 11 13 15 16 16 16 15 14 13 12 11 12 14 14 14 14 15 15 15 14 14 14 13 13 13 12 12 12 11 10 10 11 10 10 9 9 8 7 7 7 7 7 7 7 6 6 5 4 4 4 4 6 8 9 11 13 14 16 17 18 21 22 22 23 26 29
2 4 8 6 3 4 6 5 4 4 4 8 8 5 4 5 7 10 13 13 13 14 17 19 18 18 18 16 14 13 12 11 12 13 13 13 13 13 13 13 13 13 12 12 12 11 10 9 9 9 7 7 7 9 8 8 8 7 7 6 7 6 6 6 6 6 6 6 6 5 5 5 6 8 9 11 12 13 15 16 17 20 23 23 24 25 27
2 5 5 3 3 4 5 5 4 3 2 2 2 1 4 6 7 10 13 13 15 17 19 20 20 20 18 14 11 12 12 12 13 13 13 13 12 12 12 11 10 11 11 10 11 10 9 8 8 8 6 5 5 6 6 7 7 7 6 5 5 5 5 5 5 6 6 6 6 6 6 6 7 8 9 11 12 12 13 14 16 18 21 22 22 22 24
5 6 6 4 4 3 3 6 5 5 5 5 4 1 4 5 7 11 14 14 16 18 18 19 20 16 11 8 8 10 11 12 13 13 12 12 11 11 11 10 9 9 10 10 9 9 9 9 10 10 9 8 7 7 7 7 7 7 6 5 5 6 7 7 7 7 7 7 7 7 7 7 8 9 9 11 12 12 13 14 16 18 20 22 21 20 21
6 6 7 6 3 1 3 5 5 4 3 5 5 3 4 5 7 11 13 14 15 17 17 19 16 11 5 6 8 10 11 11 11 11 11 10 10 9 9 9 8 8 8 8 8 8 8 9 11 11 10 10 10 9 8 8 8 7 6 7 8 9 9 10 10 10 10 10 10 10 9 9 8 9 10 11 12 13 14 15 16 17 19 21 21 20 21
7 7 7 4 2 3 3 4 5 4 3 3 5 5 3 6 9 12 12 14 15 15 16 16 9 3 3 8 10 11 11 11 10 10 9 9 8 7 7 9 8 7 7 7 6 6 7 8 11 11 11 11 10 9 9 9 8 7 8 10 12 13 14 14 13 12 11 11 12 14 15 15 14 13 12 12 12 13 14 15 16 17 18 19 20 21 22
7 7 6 1 4 4 5 5 4 5 3 2 4 2 4 7 10 11 11 12 13 13 12 10 6 9 10 12 12 10 10 10 9 9 8 7 7 7 7 8 8 8 7 6 6 7 7 9 11 12 12 12 11 10 10 10 9 10 12 15 18 19 20 19 18 16 15 15 16 19 21 21 21 19 17 14 13 14 14 15 16 18 19 20 21 21 21
6 6 5 2 4 4 7 5 4 6 4 2 2 4 6 8 9 10 10 10 11 10 8 9 12 15 14 13 11 10 9 9 8 8 7 7 6 6 7 8 8 9 8 6 7 9 10 11 12 13 14 13 12 12 11 10 11 14 17 18 20 21 21 22 22 22 23 23 23 25 25 25 24 24 22 20 18 16 16 17 17 19 20 20 20 21 20
5 5 5 4 2 4 7 5 3 6 4 3 6 8 8 8 9 10 9 8 9 10 12 13 13 13 12 11 10 9 8 7 7 7 6 6 6 6 7 6 8 11 9 7 9 10 10 11 12 13 14 13 12 13 12 12 15 17 18 18 19 20 21 23 25 26 27 27 27 27 27 27 28 27 25 23 20 18 18 18 19 20 20 19 20 21 22
5 3 1 1 2 5 6 5 4 7 8 6 6 9 10 9 9 10 9 8 7 8 9 9 9 9 9 8 8 7 7 6 6 6 6 6 6 6 7 6 8 11 9 8 10 10 9 11 12 12 12 11 12 13 13 14 17 18 18 19 19 20 22 23 24 25 25 25 25 24 23 24 25 27 27 26 23 21 19 19 19 20 20 19 20 21 21
3 3 4 3 3 6 8 8 9 10 9 8 6 9 10 8 8 8 9 8 8 7 7 8 7 6 6 7 7 6 6 6 6 6 6 6 6 7 7 7 9 11 10 9 10 9 10 11 11 10 10 10 12 13 13 14 16 16 17 17 18 20 20 21 23 24 25 25 24 22 22 22 22 24 25 25 24 23 22 21 21 21 21 21 20 20 19
6 6 6 5 6 7 9 10 10 10 10 10 9 10 9 8 8 8 8 8 6 5 5 6 5 6 6 6 5 5 5 5 5 5 5 5 6 7 7 7 9 10 9 8 8 8 9 9 9 9 9 10 10 12 12 13 14 14 15 16 17 18 18 19 20 21 22 22 22 21 21 22 22 23 24 24 24 24 23 23 22 22 22 23 22 21 20
3 4 6 6 7 8 9 9 9 9 9 9 9 9 9 9 8 8 8 7 6 6 6 5 5 5 6 5 4 5 4 4 4 5 4 5 6 6 6 7 8 9 8 7 7 8 8 8 8 8 9 9 10 12 13 14 15 16 17 18 18 19 19 19 19 19 19 20 21 21 22 22 22 23 23 24 25 26 26 26 25 24 24 25 24 22 21
2 5 8 8 8 9 8 8 8 9 8 9 9 9 9 9 8 8 7 6 5 6 6 6 5 4 4 4 4 4 4 4 4 4 4 5 6 6 6 7 7 7 7 7 7 7 8 8 9 9 10 11 12 13 15 16 17 18 18 19 19 20 20 20 20 20 20 20 21 22 22 21 22 23 23 23 24 25 26 26 26 26 25 26 27 24 22
5 7 8 9 8 8 7 7 7 8 8 8 8 8 8 7 6 6 6 6 6 6 5 5 4 3 3 4 4 4 4 4 4 5 5 6 6 6 6 7 7 7 7 6 6 7 8 9 10 10 11 12 13 15 16 17 17 19 19 19 20 20 19 19 19 19 20 20 20 21 21 21 21 22 23 24 24 24 24 24 27 28 25 22 22 21 20
2 4 7 7 3 3 7 8 7 7 6 6 6 5 5 4 3 3 3 3 4 4 4 4 4 4 4 5 6 5 5 5 6 6 7 7 7 7 7 7 7 6 6 5 6 6 8 9 10 10 12 13 14 15 16 17 17 19 19 19 19 18 17 17 17 17 18 19 19 20 21 21 22 22 23 25 26 27 26 25 26 28 26 22 19 17 17
3 4 6 4 2 3 8 8 6 5 4 3 3 3 2 1 1 1 1 2 2 1 2 3 3 3 4 6 7 6 6 6 6 7 7 8 8 8 8 7 7 5 5 5 5 7 8 9 10 11 13 14 15 15 16 17 18 18 19 18 17 16 15 15 15 15 16 17 17 18 20 20 21 23 24 24 25 28 29 29 28 27 27 26 23 19 17
3 5 4 2 2 5 8 7 5 4 2 2 2 1 1 1 1 2 2 3 4 4 5 5 5 4 5 6 6 7 7 7 7 8 9 9 8 8 8 6 5 4 4 5 6 7 8 9 11 12 13 14 15 16 17 18 18 17 17 16 15 15 15 16 17 17 18 18 18 18 18 19 21 22 23 23 23 24 26 29 30 30 30 30 30 29 27
3 5 5 3 4 5 4 3 3 2 1 1 1 2 1 1 3 2 2 4 5 4 5 6 6 5 5 6 7 8 8 8 9 10 10 9 8 8 7 5 4 4 4 5 6 7 9 9 10 12 13 15 16 18 18 18 17 16 15 15 16 18 19 20 21 22 22 21 20 19 18 18 19 20 21 22 23 22 23 24 27 29 30 31 32 34 35
3 4 4 3 3 2 1 1 2 2 2 1 1 2 2 2 3 2 2 4 5 4 5 5 6 6 6 7 8 8 9 9 10 9 9 9 8 8 7 5 4 4 5 6 7 7 8 9 10 13 15 16 18 19 19 18 16 15 16 17 19 21 22 23 23 24 24 23 23 22 20 19 18 19 20 20 21 22 22 23 23 23 24 25 27 30 32
2 3 3 2 1 1 2 1 2 2 1 1 1 2 2 1 2 3 4 5 4 4 5 5 5 6 7 7 8 9 9 10 9 9 9 9 9 8 6 5 5 5 6 6 7 7 8 10 12 14 16 17 18 19 18 17 15 15 16 19 20 21 22 22 22 22 23 24 24 23 22 20 19 19 19 19 20 21 22 22 21 19 18 19 22 26 27
2 2 2 2 2 1 1 1 1 1 2 1 1 2 3 3 4 5 5 5 5 5 5 5 5 6 7 7 7 8 9 9 9 9 9 10 8 6 5 5 5 6 6 6 6 7 9 11 12 14 16 17 18 19 18 16 15 15 15 16 17 18 19 19 19 20 22 24 24 24 22 20 20 19 18 18 20 20 21 22 21 18 16 16 19 23 24
3 2 2 1 1 0 1 2 3 3 3 3 2 3 4 4 5 5 4 5 5 5 5 6 6 6 7 7 8 9 9 9 9 9 9 9 7 6 6 5 5 6 6 5 5 7 9 10 12 14 15 17 18 18 16 16 16 16 15 15 15 16 17 19 21 22 22 24 25 25 22 19 19 19 18 18 19 20 20 20 19 17 15 15 17 20 22
4 3 3 2 1 2 3 4 4 5 5 5 4 4 5 4 5 5 5 4 5 5 5 6 6 7 8 9 8 8 8 9 10 11 10 8 7 7 6 5 5 5 5 4 5 7 8 9 12 14 15 17 18 17 17 18 18 16 14 14 14 15 17 20 23 23 22 22 24 24 21 19 17 17 16 16 17 19 19 19 18 18 17 14 14 16 19
5 4 3 3 2 3 4 5 5 6 6 5 5 5 5 5 5 6 5 5 5 5 6 7 8 8 8 8 7 8 11 13 14 13 10 8 8 8 6 5 4 4 4 5 7 6 7 9 13 15 15 17 17 16 17 20 18 14 14 14 13 14 18 21 21 20 19 18 17 18 19 17 15 13 13 15 16 18 18 16 15 17 15 10 10 12 14
5 5 4 4 5 5 5 5 6 6 6 6 6 6 6 6 6 6 5 5 5 6 7 8 8 7 8 9 11 14 15 13 11 10 8 8 8 6 6 6 5 3 3 4 5 5 7 10 13 15 16 16 15 14 17 18 16 14 15 14 13 14 18 20 19 18 16 13 10 12 13 13 11 10 11 13 14 15 14 12 11 12 11 6 9 9 8
6 5 5 5 5 6 6 6 7 7 7 7 7 7 7 6 5 5 5 5 5 7 8 7 7 9 12 14 14 14 11 8 6 6 6 6 6 4 4 5 4 2 3 4 5 6 7 10 13 14 16 16 14 14 16 17 14 13 13 13 13 16 17 16 15 13 11 8 5 7 9 9 9 9 10 10 12 13 11 8 8 9 7 3 5 7 6
6 5 4 3 4 6 7 7 7 7 7 7 7 7 7 6 5 5 4 5 6 7 7 6 8 11 13 13 11 10 7 4 4 4 4 5 4 3 3 3 2 3 5 6 6 7 8 11 13 14 16 15 13 13 17 18 14 10 11 14 15 15 14 13 11 10 8 7 6 6 6 6 7 8 8 7 9 10 8 6 7 7 5 4 5 7 7
5 4 3 3 3 5 6 6 6 6 6 6 7 7 6 6 6 5 5 5 7 6 5 7 11 12 11 10 8 6 4 3 3 4 5 4 3 3 2 2 3 4 5 5 6 7 8 10 13 14 14 14 13 14 18 19 15 10 12 15 15 13 12 11 10 10 9 7 6 7 6 4 4 6 5 4 6 9 7 5 4 6 6 6 7 8 8
5 4 3 3 3 4 5 5 4 3 4 6 7 7 6 6 5 5 5 6 7 6 5 8 12 12 9 8 6 3 3 3 3 3 3 3 3 2 2 3 4 4 5 5 7 8 8 10 11 11 11 13 13 14 16 18 16 13 13 13 12 11 11 10 9 10 10 8 7 7 4 2 2 2 2 2 3 5 5 5 6 7 5 5 6 7 9
5 3 2 2 3 3 4 4 3 3 4 5 6 6 7 6 5 5 5 6 7 5 5 8 11 11 7 6 4 3 3 3 3 4 4 4 3 3 2 2 2 3 4 6 8 8 8 9 9 8 10 12 13 13 14 16 17 15 13 12 12 11 10 9 9 10 9 9 10 9 6 4 3 1 1 1 2 2 5 7 7 6 5 4 6 9 11
4 3 2 1 2 3 3 3 2 4 4 4 5 7 7 7 6 6 6 6 6 5 5 6 8 8 6 4 3 4 4 3 3 4 4 4 3 3 3 1 1 3 5 6 7 6 6 7 7 7 9 10 12 12 12 13 15 15 12 12 13 12 8 7 9 10 10 8 8 7 6 6 4 2 1 3 4 6 7 7 6 6 6 7 10 12 12
5 4 4 3 2 2 2 2 3 4 5 5 6 7 8 7 7 6 6 6 6 5 4 5 6 6 5 4 3 4 4 4 3 3 3 3 3 2 1 0 2 5 6 5 5 5 5 6 5 6 8 8 9 10 11 11 14 15 12 11 12 11 8 7 7 9 9 9 8 8 7 7 7 6 4 4 7 8 8 8 7 6 7 10 12 14 15
7 7 6 6 5 3 3 3 4 5 6 6 7 7 8 8 7 6 6 6 5 5 5 5 6 5 5 4 3 3 4 4 3 3 3 2 1 3 2 2 4 7 8 7 5 5 6 5 4 5 6 5 5 7 9 11 13 13 12 10 10 10 8 7 7 7 8 10 11 10 8 6 8 9 10 10 9 8 8 9 11 11 11 12 13 15 18
9 8 8 8 7 6 5 5 5 5 6 7 7 7 8 7 7 7 6 5 5 5 5 5 6 6 5 5 5 5 6 5 4 4 3 2 2 4 4 3 6 9 10 8 5 5 6 6 5 5 4 3 3 5 9 12 13 12 11 10 10 9 8 7 6 6 7 7 9 11 10 7 5 6 9 10 10 9 9 10 11 11 12 12 13 17 21
11 11 10 10 9 7 7 6 5 6 7 7 8 8 8 8 8 7 6 5 5 5 4 5 6 7 6 6 5 5 6 6 6 6 6 5 5 5 4 3 7 10 10 6 4 4 5 5 6 4 2 2 3 5 9 11 11 10 10 10 10 10 10 10 10 10 8 6 6 8 10 11 9 7 8 11 12 12 12 12 11 12 12 12 13 18 21
11 12 11 11 10 9 8 7 6 6 7 8 8 9 9 9 8 8 6 6 6 5 4 4 6 6 5 5 5 5 6 6 6 6 6 6 6 6 5 4 6 9 8 4 3 3 4 5 6 4 2 2 2 5 8 10 9 9 9 10 9 9 10 11 14 16 15 12 10 10 9 10 11 11 10 11 13 13 13 13 12 12 12 14 16 19 19
10 11 12 12 11 10 9 8 7 6 7 8 8 9 10 10 9 8 7 7 6 5 4 4 4 4 4 5 5 4 4 4 4 4 5 5 6 7 7 6 7 8 7 4 2 2 4 6 5 3 2 1 2 5 8 9 8 7 8 9 9 9 9 9 11 14 16 15 14 14 13 12 12 12 13 14 14 14 15 16 16 14 15 17 19 20 20
10 11 11 12 12 11 10 8 7 6 7 8 8 9 10 10 10 9 8 7 7 6 5 4 4 5 5 5 5 5 4 4 4 4 3 3 4 5 7 8 7 6 5 3 2 2 4 5 4 2 1 0 3 5 6 6 6 6 7 7 7 8 8 9 9 10 12 13 14 14 15 15 16 16 17 18 18 18 18 18 18 18 18 20 20 20 20
10 10 11 12 13 13 11 9 6 6 6 7 9 10 10 10 10 10 9 8 8 7 6 5 5 5 5 5 5 5 4 3 3 3 3 3 6 7 7 8 6 4 3 4 4 3 4 4 3 1 0 1 3 5 5 5 4 4 5 6 7 7 8 8 8 8 9 10 12 13 13 14 15 16 17 17 18 18 18 17 18 18 18 18 18 18 18
10 10 10 11 13 13 12 10 8 7 6 7 8 9 9 10 10 10 10 9 8 8 7 6 5 5 5 5 5 5 4 3 3 3 3 4 6 7 6 5 3 3 3 4 4 4 3 3 2 1 0 2 4 5 4 3 3 4 4 5 6 6 7 7 8 7 8 9 10 10 10 10 11 13 13 14 15 14 14 14 14 15 16 16 17 16 16
10 10 10 10 11 12 13 12 11 9 8 7 7 8 9 9 10 10 10 10 9 8 8 8 7 6 6 6 5 5 5 4 3 3 3 3 4 4 4 3 2 2 2 2 2 2 2 1 1 1 2 3 5 5 3 1 2 3 3 3 4 5 6 6 6 6 7 7 8 7 7 7 7 8 9 11 11 11 11 11 11 12 13 13 14 14 13
11 11 10 9 9 11 13 13 12 11 10 8 7 7 8 9 10 10 10 10 10 9 9 9 8 8 7 6 5 5 6 6 6 4 4 4 4 4 4 3 2 2 2 2 1 1 1 1 1 2 3 5 4 3 1 2 2 3 3 3 3 3 4 4 5 5 5 6 6 6 6 6 6 6 7 8 9 10 10 9 9 10 10 11 11 11 11
11 11 10 10 9 10 11 12 12 12 11 10 9 8 7 8 10 10 10 10 11 11 10 9 9 9 8 8 6 5 6 8 7 7 6 6 5 5 4 3 3 3 3 3 3 2 2 2 2 3 4 4 3 2 3 3 3 3 4 4 4 4 3 3 3 3 3 4 4 4 4 5 5 7 8 9 9 10 10 9 8 8 9 9 9 9 9
12 12 11 10 10 9 10 10 11 12 11 10 11 10 9 8 9 10 10 10 10 11 10 10 10 9 9 9 8 7 7 8 7 7 6 6 6 5 4 4 3 3 3 3 3 3 2 2 3 4 5 4 3 2 4 4 4 4 4 4 5 5 6 6 5 4 5 5 4 4 4 4 4 5 7 7 8 8 8 8 8 8 8 8 8 8 8
12 11 11 9 8 8 8 9 10 10 10 11 11 12 10 8 8 9 10 10 11 11 11 11 10 10 9 9 9 9 9 8 8 7 7 6 6 6 5 5 4 4 4 3 3 3 3 3 3 4 4 4 4 3 4 4 4 4 4 4 4 5 6 6 7 7 7 7 6 6 6 6 6 6 6 6 6 6 6 6 6 7 7 7 6 6 6
Wind_Direction
348 350 354 3 8 356 22 43 30 290 219 200 202 263 7 347 265 166 119 122 127 134 145 144 133 135 139 137 134 133 133 131 126 118 109 103 100 97 93 90 87 84 83 81 81 82 84 88 94 99 103 108 111 111 116 122 120 125 139 145 147 151 156 169 184 190 202 210 205 205 214 216 212 211 211 212 215 217 218 218 218 217 214 213 211 208 207
282 299 319 336 344 5 59 49 36 46 64 79 82 69 66 77 94 107 113 113 112 121 134 128 119 126 133 135 135 137 138 135 129 122 115 107 100 96 92 88 86 82 80 79 77 76 78 80 83 86 88 91 94 96 102 108 106 101 109 119 120 119 130 169 192 191 204 214 211 210 216 218 219 223 224 222 222 223 224 226 226 225 224 220 217 214 213
238 231 242 263 276 287 343 16 19 45 61 62 62 58 66 85 93 99 105 105 105 119 126 123 125 130 137 142 141 137 135 132 129 125 117 107 98 95 92 88 85 81 77 75 74 72 70 70 72 74 75 77 79 81 84 91 99 101 98 96 96 96 102 117 161 188 202 212 215 217 221 223 225 231 236 236 235 233 231 229 228 228 227 224 221 219 217
215 200 210 216 218 234 249 250 257 45 54 54 58 50 51 89 116 118 115 112 120 135 137 138 141 141 140 139 135 135 134 132 133 126 111 101 96 93 90 87 83 78 73 69 68 67 65 64 64 63 65 67 67 67 69 73 80 86 85 84 83 83 80 73 66 76 208 206 216 221 228 235 238 240 243 244 242 241 238 236 235 232 229 227 224 225 224
220 202 202 200 200 218 234 229 209 177 125 88 80 68 54 63 113 134 127 118 126 139 146 146 142 138 137 134 133 136 133 128 126 116 101 94 91 87 85 82 78 73 70 64 61 60 58 58 57 56 59 59 56 57 60 62 68 75 75 73 70 68 62 51 45 31 2 312 260 237 231 239 243 244 246 247 245 244 243 242 239 235 235 236 235 233 232
238 206 188 191 211 219 230 6 84 140 144 130 109 86 56 43 60 88 96 111 130 145 149 143 136 131 130 130 131 132 128 121 112 102 94 90 88 84 79 76 72 68 65 62 61 59 54 51 51 54 61 59 51 50 53 55 57 63 68 69 65 59 52 42 37 29 14 344 303 276 252 248 246 243 247 250 250 247 245 243 240 236 237 238 237 236 235
258 209 179 194 218 202 94 58 56 65 117 122 109 97 77 64 84 100 108 122 136 137 131 130 131 131 129 127 127 126 123 116 105 96 92 87 85 81 76 71 67 63 60 60 65 62 52 47 46 50 64 67 52 44 45 45 44 47 54 57 54 49 43 35 29 23 14 357 333 307 283 267 259 258 259 258 255 252 248 245 244 244 243 240 240 242 242
314 232 200 200 184 104 90 94 102 93 119 132 125 115 121 131 128 121 121 124 122 115 117 122 126 128 123 114 108 108 109 107 101 96 92 86 81 78 73 69 67 65 62 59 60 55 46 43 40 40 55 67 52 40 36 30 26 28 33 37 38 35 28 19 12 11 4 351 340 327 308 290 277 272 270 268 266 260 254 250 247 247 246 245 246 246 244
190 241 222 165 140 136 109 90 88 70 72 138 195 171 140 152 157 144 134 129 124 122 124 128 131 129 120 104 94 96 98 97 96 93 91 89 84 78 71 63 57 56 56 52 47 40 33 28 21 13 14 29 34 27 22 19 16 14 12 14 17 12 0 353 349 349 344 336 329 322 314 306 295 283 275 274 273 265 257 254 251 249 249 248 247 245 242
206 239 240 203 195 190 110 72 48 15 2 352 336 359 135 151 165 155 144 137 136 138 138 141 144 141 127 110 110 111 104 97 95 93 90 88 85 81 73 64 52 44 43 40 33 23 14 6 359 354 351 353 355 356 357 357 355 353 350 345 343 337 329 326 325 322 318 315 311 308 307 306 300 291 284 279 275 268 259 253 252 253 253 252 251 249 246
230 248 259 253 250 188 91 59 37 18 356 341 318 265 174 155 159 154 144 141 145 146 146 150 158 167 157 129 128 125 114 102 94 89 85 78 74 71 62 55 53 47 36 33 30 19 6 355 348 348 349 347 348 350 346 337 335 335 325 312 311 312 310 308 306 306 305 301 298 294 291 292 293 292 290 286 279 271 263 256 254 254 254 255 254 251 248
255 254 260 277 39 72 72 41 20 11 6 324 273 241 174 144 152 150 143 143 144 144 150 158 166 180 129 123 126 125 116 104 93 86 81 71 66 60 39 30 41 44 30 27 29 17 3 354 347 345 345 344 343 341 333 328 328 321 305 299 299 297 294 292 293 298 299 296 292 288 284 283 285 284 285 288 285 277 268 262 258 256 255 257 256 253 251
263 259 259 239 90 60 14 12 6 349 334 254 239 200 125 136 148 148 145 146 146 148 160 164 117 75 92 114 123 119 109 100 91 84 76 65 61 55 34 24 28 30 25 20 16 4 351 346 345 342 339 338 336 330 326 324 316 304 299 297 296 294 293 291 289 286 283 282 282 281 279 280 282 280 278 278 280 280 274 266 262 259 258 256 256 256 256
270 269 268 227 117 41 348 350 7 347 321 212 132 91 116 135 139 138 140 147 148 137 121 109 100 97 103 113 115 106 96 90 81 72 62 54 49 37 29 24 8 6 15 8 353 352 346 341 341 336 332 332 328 321 318 311 299 294 294 293 293 294 293 291 288 284 281 280 280 279 278 278 277 276 275 273 272 273 272 269 265 262 260 257 256 256 254
288 270 268 256 124 39 344 328 2 10 15 113 118 108 113 115 118 123 124 133 138 114 92 94 104 106 104 105 104 95 86 76 67 58 46 41 37 22 22 17 349 352 6 355 343 348 345 337 336 332 330 331 323 318 317 309 302 301 300 298 295 291 288 286 285 285 284 282 282 281 279 277 275 273 272 271 269 268 268 267 264 262 262 257 253 250 248
304 296 333 320 66 47 12 6 56 61 58 69 99 113 113 109 113 116 115 120 127 114 106 115 122 113 103 98 94 85 74 62 55 47 33 28 22 9 11 3 343 348 356 345 341 347 341 333 334 332 332 330 325 327 328 321 317 317 315 310 305 298 294 290 286 283 281 280 280 279 278 276 274 272 270 268 267 265 264 264 261 259 258 254 250 249 248
15 37 73 87 76 64 56 65 91 101 93 80 90 115 119 113 114 118 118 120 121 123 131 137 129 112 96 85 77 67 56 48 39 28 20 16 9 3 3 352 340 344 348 341 340 341 335 334 335 334 335 335 333 336 335 329 327 326 321 317 312 307 303 299 293 288 284 280 277 276 276 273 271 270 268 267 264 261 260 260 259 256 254 250 246 246 245
93 74 86 103 96 85 81 82 90 101 107 108 110 118 115 102 99 110 117 116 112 111 121 125 113 90 75 69 65 51 41 36 27 17 13 9 359 355 354 345 340 343 344 339 337 336 336 339 340 338 339 338 335 335 332 328 327 323 317 315 311 307 306 304 300 298 294 288 283 278 274 271 270 268 265 261 259 257 256 256 256 254 252 248 245 243 241
135 102 104 111 112 109 104 98 92 88 93 102 107 112 114 111 110 113 113 111 101 85 81 86 85 73 63 56 48 37 28 20 14 7 4 0 353 348 346 341 341 344 342 336 336 337 339 342 341 338 337 333 329 327 324 322 319 315 312 309 306 304 303 301 300 298 296 294 290 283 275 271 269 267 263 260 258 255 252 251 252 252 251 249 248 243 236
100 118 121 120 121 120 115 114 114 111 109 110 112 115 117 117 118 116 110 104 95 85 78 75 73 70 65 55 38 20 6 2 3 360 355 350 344 342 340 338 339 341 337 335 338 338 337 335 331 329 327 325 322 320 316 315 313 310 308 304 300 299 297 295 295 294 292 292 292 288 283 276 271 267 264 261 258 254 252 249 248 250 252 253 254 248 235
113 126 135 135 133 132 129 120 116 121 125 123 124 128 125 121 119 114 105 91 83 79 75 68 60 53 49 41 22 2 357 1 360 351 347 343 338 339 338 335 337 338 334 333 335 331 329 328 325 324 322 319 318 316 314 313 311 308 306 302 299 296 294 291 290 289 289 290 289 288 287 283 278 271 264 260 258 256 255 253 248 246 247 248 250 246 236
150 139 152 152 140 138 144 137 126 125 128 126 129 135 134 127 112 92 85 84 84 82 70 52 35 23 24 18 4 356 354 356 355 347 341 337 335 336 334 331 332 329 325 326 327 325 327 326 322 321 320 317 316 315 312 311 309 306 304 302 298 294 291 289 289 287 287 288 286 285 285 284 283 279 270 262 257 251 250 251 247 241 239 243 247 246 240
68 105 145 154 15 87 130 136 137 136 135 141 150 152 153 150 108 21 359 344 325 305 331 354 350 344 352 355 353 348 342 343 347 345 340 338 333 329 330 330 326 320 315 318 321 322 325 324 321 319 318 315 315 314 312 311 308 305 303 300 296 293 290 287 287 287 286 285 284 284 285 284 285 285 279 272 265 256 250 248 246 241 239 241 246 250 249
84 105 119 90 42 105 124 131 142 147 157 194 198 181 165 200 277 286 283 300 306 298 297 296 291 300 320 330 330 330 329 332 334 333 335 335 328 323 325 323 313 308 308 309 313 317 319 320 318 317 316 315 316 315 313 310 307 304 301 296 290 290 289 287 287 289 288 286 282 279 279 281 283 285 283 277 273 268 260 252 248 247 246 244 243 248 250
87 100 95 79 85 108 122 142 157 167 205 220 287 336 326 308 328 324 276 281 290 290 290 288 286 297 307 304 305 313 318 319 320 323 325 326 321 318 317 309 300 300 300 302 309 315 316 317 318 319 319 320 320 316 313 310 306 301 297 295 293 295 296 296 296 295 293 290 287 282 279 277 277 282 284 279 274 271 268 261 253 252 253 251 247 248 251
98 113 123 122 113 117 192 210 162 160 193 201 318 316 275 287 320 311 273 283 288 281 281 282 282 287 290 291 296 302 306 309 313 316 316 315 314 311 304 292 287 289 291 300 308 310 312 317 321 322 321 321 320 317 313 310 306 300 300 304 306 304 303 303 301 298 295 290 286 283 279 275 272 275 279 280 277 271 267 264 259 257 258 255 247 243 247
141 151 171 204 189 196 270 319 91 120 178 206 250 253 233 264 294 270 263 273 274 270 278 282 280 282 286 291 295 298 302 306 309 311 310 309 309 305 294 283 284 290 295 302 303 305 314 320 321 322 321 321 322 321 317 314 309 304 306 313 314 312 310 308 305 302 300 296 292 287 280 272 269 271 274 277 277 273 266 262 259 256 255 252 244 239 239
169 176 210 260 267 228 252 290 268 238 248 243 249 258 259 268 275 269 264 262 260 265 273 274 276 285 292 294 295 297 299 301 302 305 305 303 301 297 288 284 286 288 291 295 298 303 312 318 321 323 323 323 323 321 320 319 315 308 306 309 310 309 306 302 298 297 296 296 297 295 285 274 266 265 267 271 274 274 270 263 255 251 250 247 240 234 232
195 191 218 259 293 272 232 248 252 252 252 255 270 277 269 261 260 258 253 254 260 267 272 276 281 287 290 291 292 295 296 295 295 297 299 299 295 288 283 284 284 286 295 310 316 311 311 318 326 327 325 326 326 324 323 323 320 313 308 306 305 304 300 295 293 293 289 287 289 290 286 280 271 264 264 269 272 274 274 266 255 249 246 236 227 225 225
201 202 227 244 250 245 249 259 263 261 264 265 266 269 264 252 249 248 245 254 266 270 275 282 285 284 288 293 296 291 282 276 277 283 290 289 277 267 270 276 281 288 292 289 287 294 307 325 331 329 328 330 329 328 329 328 323 317 315 313 309 307 303 300 300 300 295 287 282 278 276 280 278 270 266 267 268 270 273 269 256 247 240 225 215 219 221
207 210 229 243 250 254 264 275 275 271 269 263 254 253 250 241 242 247 250 260 272 277 281 285 288 290 294 295 285 270 269 273 279 283 284 274 260 253 254 256 261 270 258 245 260 290 325 335 331 328 330 332 331 333 336 334 328 326 329 328 321 314 312 314 316 317 311 298 280 266 267 277 283 276 270 269 267 267 269 266 251 244 239 214 191 206 221
214 220 228 233 245 258 269 276 277 274 267 254 244 241 240 238 242 251 256 263 271 280 286 291 295 293 281 271 270 275 280 284 288 288 281 268 257 248 243 244 244 233 226 248 284 326 340 331 325 327 331 332 333 338 340 336 334 339 343 339 330 326 327 330 333 332 325 312 282 259 266 282 287 276 270 271 268 265 267 262 241 238 243 208 169 187 215
224 236 244 243 255 274 281 278 276 275 268 253 237 229 232 238 241 246 252 259 271 285 294 295 288 278 272 272 281 289 290 287 290 289 275 259 247 236 236 244 243 235 257 286 313 327 320 318 322 327 330 332 335 340 342 341 340 343 344 339 334 335 339 341 342 340 338 332 304 270 274 287 287 275 270 269 263 260 263 255 226 223 238 216 176 197 217
236 257 277 287 292 297 299 296 288 278 265 245 225 217 224 232 233 239 253 267 280 294 298 284 276 280 282 285 292 295 286 271 275 275 258 241 229 222 225 232 238 263 282 293 303 303 303 312 321 326 331 337 343 343 343 345 346 342 336 335 337 343 347 347 344 343 344 347 340 314 296 291 286 276 267 262 259 255 251 232 205 196 193 190 200 216 222
231 249 272 298 304 302 303 303 295 278 252 226 212 212 218 220 223 239 261 274 285 296 287 272 281 291 294 293 295 293 274 251 235 227 231 229 215 210 224 221 229 268 286 286 284 289 300 313 319 324 334 348 356 347 341 346 355 351 337 338 342 346 350 353 353 349 346 344 334 315 296 279 281 279 260 241 246 242 228 201 168 158 170 202 223 223 213
220 237 258 289 306 310 306 299 292 266 224 207 205 213 217 214 222 247 266 277 289 295 276 274 288 298 297 293 291 274 232 225 208 195 215 226 215 221 241 227 227 260 288 285 277 286 303 311 314 323 340 353 355 344 338 348 2 359 342 340 346 347 349 359 5 1 357 1 359 344 320 258 262 272 224 199 234 224 185 132 115 127 157 208 219 197 184
217 230 257 291 315 322 311 297 273 221 205 197 195 207 216 217 227 250 270 284 292 284 263 274 291 298 297 291 280 230 193 189 174 179 209 234 240 240 239 230 252 289 298 283 275 284 302 307 308 328 350 352 348 343 343 354 7 7 352 345 345 345 348 4 18 18 15 14 15 17 24 26 6 340 189 204 229 168 119 109 121 139 157 185 180 169 168
217 219 232 269 325 331 314 293 251 222 217 207 199 208 217 223 234 253 273 287 288 272 253 269 286 294 295 283 249 205 182 171 173 198 227 243 245 227 204 181 331 307 288 280 282 292 304 304 312 345 357 346 342 347 351 1 12 14 6 355 351 351 2 22 31 33 30 21 14 18 24 22 18 12 192 169 144 123 108 109 128 146 157 162 160 157 156
230 232 237 247 284 317 311 282 251 233 227 224 219 217 218 223 234 252 272 281 275 264 258 261 264 272 284 283 244 212 203 197 197 222 242 240 239 239 201 183 301 297 295 299 304 306 308 312 334 358 352 337 336 343 352 7 17 18 14 7 2 5 22 42 40 34 32 32 35 39 42 52 65 69 71 96 108 107 106 109 113 122 141 151 151 151 148
241 245 248 249 258 279 289 276 262 248 238 233 228 223 223 226 230 244 266 273 264 257 259 256 251 261 286 299 284 256 246 237 233 248 253 234 309 351 341 267 262 288 305 311 304 303 313 325 340 343 335 330 336 344 356 16 24 20 19 20 16 14 27 45 44 34 34 41 49 50 50 66 89 92 88 85 85 91 104 106 103 108 119 126 134 147 151
248 248 249 250 255 266 275 275 271 261 248 240 233 229 229 227 229 240 257 262 255 254 257 251 246 251 268 279 273 262 259 261 265 274 279 282 306 317 305 254 250 274 294 302 306 320 332 333 326 325 330 342 360 8 16 24 25 21 23 29 29 26 31 42 44 39 39 48 54 53 50 56 88 124 127 114 97 94 103 103 102 113 120 118 128 149 156
255 252 250 248 250 258 266 270 270 262 252 246 238 232 228 222 223 234 245 245 243 251 256 253 252 252 249 249 254 254 249 247 249 253 256 256 261 268 267 259 270 281 287 294 313 337 340 323 311 313 334 354 11 31 32 27 23 24 28 32 35 35 38 45 52 53 55 65 70 62 59 61 67 93 129 128 115 112 115 111 105 111 116 116 131 151 158
262 259 255 250 251 257 265 268 266 261 255 249 240 234 230 225 222 227 233 233 236 244 249 253 262 266 256 246 249 252 246 241 242 244 243 246 258 263 252 246 272 285 285 278 293 319 316 298 295 307 343 8 33 50 42 30 23 26 31 35 40 40 40 47 55 58 61 68 75 75 75 72 68 74 96 113 117 121 124 117 107 104 109 118 131 143 147
268 263 257 252 250 255 260 262 261 260 258 251 240 233 230 227 224 225 228 229 232 237 240 243 250 253 247 244 245 246 244 242 241 242 241 242 257 272 271 259 263 277 280 266 259 301 301 292 292 306 336 7 84 73 53 34 24 27 34 38 43 45 44 46 53 60 64 69 72 76 81 83 82 82 90 99 107 113 117 115 112 110 114 122 130 136 140
269 263 258 253 250 251 253 254 256 260 258 250 240 233 229 226 225 226 227 227 229 232 235 240 241 237 237 240 242 242 243 236 225 233 251 241 225 246 274 279 271 269 273 263 237 269 291 290 290 298 310 58 99 79 54 35 30 36 41 43 45 50 53 52 52 59 67 71 73 77 82 87 93 98 102 104 107 108 109 112 115 118 122 127 132 137 142
268 262 257 251 246 245 245 243 245 256 259 249 240 234 230 227 228 229 227 227 229 230 229 230 232 229 229 233 235 237 243 239 220 217 242 242 226 235 263 280 277 264 265 261 249 257 276 282 282 293 306 105 91 67 40 29 38 49 53 55 53 53 57 60 60 61 67 72 76 82 87 90 96 102 106 108 111 112 113 116 120 124 127 131 136 140 145
270 263 258 252 245 241 239 236 235 242 250 248 243 239 233 227 227 229 228 226 227 228 227 227 228 226 223 226 227 224 225 234 238 233 235 242 247 255 265 270 262 257 259 254 250 257 272 274 268 255 152 103 81 58 37 35 54 60 67 78 79 70 65 66 68 66 63 61 63 70 81 91 100 107 112 114 115 117 119 123 127 131 136 140 144 149 155
269 263 260 257 248 240 236 234 234 237 242 245 244 240 234 228 225 227 229 227 226 225 226 227 226 223 221 221 222 220 215 211 218 238 242 238 249 266 271 259 236 237 242 240 244 254 255 244 231 193 141 100 72 51 34 61 93 92 98 115 113 105 99 94 92 92 91 85 78 76 80 88 99 114 125 129 129 129 130 133 137 143 150 155 159 163 169
265 261 259 257 250 241 237 235 235 237 242 245 243 237 231 227 226 227 228 228 227 228 230 229 224 221 224 227 228 225 216 202 191 200 220 220 218 236 253 248 217 207 203 190 178 171 148 143 165 157 124 99 79 62 59 84 97 109 118 117 117 126 131 126 122 124 121 113 106 104 105 107 115 130 142 149 154 155 156 157 159 162 167 172 176 179 184
257 255 252 250 248 245 242 239 238 239 243 248 248 241 231 228 230 230 229 228 229 230 231 230 223 216 218 224 223 218 218 216 209 209 221 223 219 225 236 230 209 201 195 177 163 152 134 135 149 141 117 100 96 117 120 104 97 107 110 102 94 93 94 95 105 117 114 105 101 104 109 120 140 156 163 166 167 168 170 172 174 175 181 187 191 195 201
250 247 245 245 244 242 238 237 238 239 241 246 247 242 234 230 235 237 234 232 231 230 230 231 227 217 212 214 212 206 211 221 224 222 225 227 223 222 224 221 212 209 202 183 169 162 155 153 150 135 118 108 105 110 108 105 104 105 105 102 97 93 89 86 85 86 89 92 98 103 106 112 133 156 167 173 176 178 179 180 181 184 189 194 198 201 205
244 240 241 244 247 245 240 237 237 237 237 241 244 241 235 232 239 243 240 235 233 233 231 230 227 221 215 213 209 204 207 221 231 233 231 231 229 227 226 223 218 214 210 201 190 184 177 169 163 151 137 130 126 117 107 102 99 98 101 104 103 98 97 99 100 99 98 97 96 98 102 105 111 123 135 143 149 156 161 162 162 163 162 159 158 159 160